Regional Weather Roundup
Issued by NWS Newport/Morehead, NC

Current Version | Previous Version | Text Only | Print | Product List | Glossary On
Versions: 1 2 3 4 5 6 7 8 9 10 11 12 13 14 15 16 17 18 19 20 21 22 23 24 25 26 27 28 29 30 31 32 33 34 35 36 37 38 39 40 41 42 43 44 45 46 47 48 49 50
968 ASUS42 KMHX 022013 RWRMHX WEATHER ROUNDUP FOR EASTERN NORTH CAROLINA NATIONAL WEATHER SERVICE NEWPORT/MOREHEAD CITY NC 400 PM EDT MON MAY 02 2016 NOTE: "FAIR" INDICATES FEW OR NO CLOUDS BELOW 12,000 FEET WITH NO SIGNIFICANT WEATHER AND/OR OBSTRUCTIONS TO VISIBILITY NCZ015>017-031-032-045>047-102-103-022100- NORTH COAST CITY SKY/WX TMP DP RH WIND PRES REMARKS EDENTON NOT AVBL ELIZABETH CITY SUNNY 83 69 62 SW16 29.91F KITTY HAWK PTCLDY 85 68 56 SW6 29.92F MANTEO NOT AVBL $$ NCZ045>047-081-094-103-104-022100- CENTRAL COAST CITY SKY/WX TMP DP RH WIND PRES REMARKS FRISCO PTSUNNY 76 69 79 SW13 29.98F SWANQUARTER NOT AVBL $$ NCZ095-097-098-100-101-022100- SOUTHERN COAST CITY SKY/WX TMP DP RH WIND PRES REMARKS BEAUFORT SUNNY 76 70 82 S17 29.99F CEDAR ISLAND NOT AVBL JACKSONVILLE PTSUNNY 79 67 66 S12 29.95F THUNDER PINEY ISLAND NOT AVBL WILMINGTON CLOUDY 84 65 52 S18G28 29.96F $$ NCZ011>013-027>030-043-044-078>080-089-090>093-098-022100- COASTAL PLAIN CITY SKY/WX TMP DP RH WIND PRES REMARKS AHOSKIE MOSUNNY 82 68 61 S6 29.91F CLINTON CLOUDY 80 70 71 S5 29.95F ELIZABETHTOWN MOSUNNY 82 67 60 S7 29.95F GOLDSBORO NOT AVBL GREENVILLE PTSUNNY 82 70 65 S10 29.95F HAVELOCK PTSUNNY 82 67 60 SW17G25 29.98F KENANSVILLE PTSUNNY 82 66 59 SW5 29.96F KINSTON PTSUNNY 84 68 58 S13 29.94F NEW BERN PTSUNNY 82 69 64 S10G20 29.96F RICHLANDS LGT RAIN 81 70 69 S6 29.96F ROCKY MOUNT MOSUNNY 84 68 58 S8 29.92F WASHINGTON SUNNY 84 69 61 SW8 29.93F WHITEVILLE PTSUNNY 84 69 61 S9 29.95F $$ AMZ130-135-150-152-154-156-158-170-250-252-270-ANZ085-086-088-633-658-670-022100- MARINE OBSERVATIONS STATION/POSITION TIME TEMP WIND PRES WAVE SWELL AIR SEA DIR/SP/G HT/PER HT/PER (UTC) (F) (DEG/KT/KT) (MB) (FT/S) (FT/S) CHESAPEAKE LIGHT 2000 71 90/ 7/ 8 1013.3 64 E VA BEACH 1950 59 54 210/ 12/ 12 1013.5 4/10 3/10 DUCK 1900 79 58 220/ 13/ 16 1013.5 2 E DUCK 1911 60 N/A 3/12 2/12 OREGON INLET 1900 72 70 190/ 19/ 23 1014.7 13E OREGON INLT 2000 62 N/A 4/10 3/10 HATTERAS CG 1900 75 69 210/ 11/ 18 1015.8 DIAMOND BUOY 1950 75 74 220/ 17/ 21 1015.1 4/10 3/10 CAPE LOOKOUT 2000 75 200/ 15/ 18 1015.2 BEAUFORT LAB 1900 73 68 200/ 14/ 18 1015.4 30 SE NEW RVR IN 1925 70 N/A 4/ 5 2/11 27 SE WRIGHTSVLE 1908 74 72 200/ 10/ 14 1016.7 5 SE WRIGHTSVLE 1908 73 70 200/ 14/ 17 1016.8 225 S CAPE HAT 1950 74 75 170/ 12/ 14 1019.0 4/11 3/11 41 SE CHARLESTON 1950 76 76 200/ 8/ 10 1015.6 3/ 9 3/ 9 $$

USA.gov is the U.S. government's official web portal to all federal, state and local government web resources and services.